Date String (YYYY-MM-DD hh:mm:ss) UTC,Instrument flags,absolute air pressure of the measurement (hPa),sample flow rate (lpm),inlet stack bypass flow (lpm),air temperature of the measurement (°C),ambient temperature measured by the external sensor (°C),aerosol sample conditioner tube jacket temperature (°C),OPC LED temperature (°C),internal box temperature (°C),relative humidity of the measurement (%),span deviation,mass concentration of particles derived from Lorenz-Mie calculation of OPC scattering (μg/m³),mass concentration of particles derived from Lorenz-Mie calculation of OPC scattering (μg/m³),mass concentration of particles derived from Lorenz-Mie calculation of OPC scattering (μg/m³)
DateTimeUTC,F1_M11,P_M11,Q1_M11,Q2_M11,T1_M11,T2_M11,T3_M11,T4_M11,T5_M11,U1_M11,ZSPAN_M11,X0_M11,X2_M11,X1_M11
2024-02-13 20:00:00,SystemResetWarning,0824.9,5.00,000.00,021.8,021.4,000.0,030.0,023.6,11.5,0000.0,0006.31,0003.19,0002.45
2024-02-13 20:01:00,SystemResetWarning,0824.9,5.01,000.00,021.8,021.4,000.0,030.0,023.6,11.9,0000.0,0006.23,0003.20,0002.49
2024-02-13 20:02:00,SystemResetWarning,0824.9,5.01,000.00,021.8,021.4,000.0,030.1,023.6,11.3,0000.0,0006.10,0003.22,0002.55
2024-02-13 20:03:00,SystemResetWarning,0825.0,5.01,000.00,021.8,021.4,000.0,030.1,023.7,10.8,0000.0,0007.73,0003.26,0002.59
2024-02-13 20:04:00,SystemResetWarning,0824.9,5.00,000.00,021.8,021.4,000.0,030.1,023.7,10.9,0000.0,0008.67,0003.28,0002.62
2024-02-13 20:05:00,SystemResetWarning,0824.9,5.00,000.00,021.8,021.4,000.0,030.1,023.7,10.9,0000.0,0008.64,0003.31,0002.63
2024-02-13 20:06:00,SystemResetWarning,0825.0,5.00,000.00,021.9,021.4,000.0,030.1,023.7,11.4,0000.0,0008.63,0003.33,0002.66
2024-02-13 20:07:00,SystemResetWarning,0824.9,5.00,000.00,021.9,021.4,000.0,030.1,023.7,14.1,0000.0,0008.60,0003.32,0002.68
2024-02-13 20:08:00,SystemResetWarning,0824.9,5.00,000.00,021.9,021.5,000.0,030.1,023.7,14.4,0000.0,0009.19,0003.26,0002.65
2024-02-13 20:09:00,SystemResetWarning,0824.9,5.01,000.00,021.9,021.5,000.0,030.1,023.8,14.1,0000.0,0009.06,0003.27,0002.61
2024-02-13 20:10:00,SystemResetWarning,0824.9,5.00,000.00,021.9,021.5,000.0,030.2,023.8,12.9,0000.0,0008.96,0003.24,0002.55
2024-02-13 20:11:00,SystemResetWarning,0824.9,5.01,000.00,021.9,021.5,000.0,030.2,023.8,12.2,0000.0,0009.17,0003.22,0002.52
2024-02-13 20:12:00,SystemResetWarning,0824.9,4.99,000.00,022.0,021.6,000.0,030.2,023.8,11.6,0000.0,0009.70,0003.24,0002.52
2024-02-13 20:13:00,SystemResetWarning,0824.9,4.99,000.00,022.0,021.6,000.0,030.2,023.8,11.7,0000.0,0010.03,0003.30,0002.61
2024-02-13 20:14:00,SystemResetWarning,0824.9,4.99,000.00,022.0,021.6,000.0,030.2,023.8,10.7,0000.0,0009.47,0003.41,0002.82
2024-02-13 20:15:00,SystemResetWarning,0824.9,5.00,000.00,022.0,021.6,000.0,030.2,023.8,10.7,0000.0,0009.70,0003.54,0003.03
2024-02-13 20:16:00,SystemResetWarning,0824.9,5.01,000.00,022.0,021.6,000.0,030.3,023.9,11.1,0000.0,0009.81,0003.62,0003.15
2024-02-13 20:17:00,SystemResetWarning,0824.9,5.01,000.00,022.0,021.6,000.0,030.3,023.9,11.0,0000.0,0009.92,0003.69,0003.22
2024-02-13 20:18:00,SystemResetWarning,0824.9,5.00,000.00,022.1,021.7,000.0,030.3,023.9,11.4,0000.0,0010.00,0003.76,0003.25
2024-02-13 20:19:00,SystemResetWarning,0824.9,4.99,000.00,022.1,021.7,000.0,030.3,023.9,13.5,0000.0,0009.37,0003.79,0003.29
2024-02-13 20:20:00,SystemResetWarning,0824.9,4.99,000.00,022.1,021.7,000.0,030.3,023.9,13.5,0000.0,0009.34,0003.78,0003.33
2024-02-13 20:21:00,SystemResetWarning,0824.9,5.00,000.00,022.1,021.7,000.0,030.3,024.0,12.3,0000.0,0009.30,0003.78,0003.34
2024-02-13 20:22:00,SystemResetWarning,0824.9,5.01,000.00,022.1,021.7,000.0,030.4,024.0,11.9,0000.0,0009.31,0003.79,0003.36
2024-02-13 20:23:00,SystemResetWarning,0824.9,5.01,000.00,022.2,021.8,000.0,030.4,024.0,11.5,0000.0,0009.60,0003.82,0003.37
2024-02-13 20:24:00,SystemResetWarning,0824.9,5.01,000.00,022.2,021.8,000.0,030.4,024.0,11.3,0000.0,0009.40,0003.79,0003.32
2024-02-13 20:25:00,SystemResetWarning,0824.9,5.01,000.00,022.2,021.8,000.0,030.4,024.0,11.1,0000.0,0008.97,0003.72,0003.24
2024-02-13 20:26:00,SystemResetWarning,0824.9,4.99,000.00,022.2,021.8,000.0,030.4,024.0,10.4,0000.0,0008.01,0003.74,0003.23
2024-02-13 20:27:00,SystemResetWarning,0824.9,4.99,000.00,022.2,021.8,000.0,030.4,024.1,10.8,0000.0,0008.02,0003.75,0003.22
2024-02-13 20:28:00,SystemResetWarning,0824.9,5.00,000.00,022.3,021.9,000.0,030.4,024.1,10.9,0000.0,0007.88,0003.68,0003.18
2024-02-13 20:29:00,SystemResetWarning,0824.9,5.01,000.00,022.3,021.9,000.0,030.5,024.1,11.2,0000.0,0008.35,0003.65,0003.15
2024-02-13 20:30:00,SystemResetWarning,0824.9,5.01,000.00,022.3,021.9,000.0,030.5,024.1,11.0,0000.0,0009.04,0003.65,0003.12
2024-02-13 20:31:00,SystemResetWarning,0824.9,4.99,000.00,022.3,021.9,000.0,030.5,024.2,10.7,0000.0,0009.02,0003.64,0003.07
2024-02-13 20:32:00,SystemResetWarning,0824.9,4.98,000.00,022.3,022.0,000.0,030.5,024.2,10.5,0000.0,0009.03,0003.64,0003.04
2024-02-13 20:33:00,SystemResetWarning,0824.8,5.00,000.00,022.4,022.0,000.0,030.5,024.2,10.7,0000.0,0008.91,0003.62,0002.99
2024-02-13 20:34:00,SystemResetWarning,0824.7,5.01,000.00,022.4,022.0,000.0,030.5,024.2,10.8,0000.0,0008.15,0003.57,0002.95
2024-02-13 20:35:00,SystemResetWarning,0824.7,5.00,000.00,022.4,022.0,000.0,030.6,024.2,11.0,0000.0,0007.99,0003.55,0002.92
2024-02-13 20:36:00,SystemResetWarning,0824.7,5.00,000.00,022.4,022.0,000.0,030.6,024.3,11.7,0000.0,0008.07,0003.49,0002.82
2024-02-13 20:37:00,SystemResetWarning,0824.8,4.99,000.00,022.4,022.1,000.0,030.6,024.3,10.8,0000.0,0007.96,0003.34,0002.60
2024-02-13 20:38:00,SystemResetWarning,0824.8,4.99,000.00,022.5,022.1,000.0,030.6,024.3,10.6,0000.0,0008.27,0003.25,0002.44
2024-02-13 20:39:00,SystemResetWarning,0824.8,5.00,000.00,022.5,022.1,000.0,030.6,024.3,10.7,0000.0,0008.36,0003.24,0002.37
2024-02-13 20:40:00,SystemResetWarning,0824.7,5.00,000.00,022.5,022.1,000.0,030.7,024.3,11.1,0000.0,0007.77,0003.25,0002.37
2024-02-13 20:41:00,SystemResetWarning,0824.7,5.01,000.00,022.5,022.1,000.0,030.7,024.4,11.0,0000.0,0007.00,0003.24,0002.39
2024-02-13 20:42:00,SystemResetWarning,0824.7,5.00,000.00,022.6,022.2,000.0,030.7,024.4,11.8,0000.0,0007.16,0003.28,0002.45
2024-02-13 20:43:00,SystemResetWarning,0824.7,5.00,000.00,022.6,022.2,000.0,030.7,024.4,10.8,0000.0,0007.22,0003.33,0002.54
2024-02-13 20:44:00,SystemResetWarning,0824.8,5.00,000.00,022.6,022.2,000.0,030.8,024.4,10.2,0000.0,0007.09,0003.35,0002.59
2024-02-13 20:45:00,SystemResetWarning,0824.8,5.00,000.00,022.6,022.2,000.0,030.8,024.4,10.7,0000.0,0007.19,0003.39,0002.66
2024-02-13 20:46:00,SystemResetWarning,0824.7,5.00,000.00,022.6,022.3,000.0,030.8,024.5,11.3,0000.0,0007.22,0003.38,0002.69
2024-02-13 20:47:00,SystemResetWarning,0824.8,5.00,000.00,022.7,022.3,000.0,030.8,024.5,10.8,0000.0,0006.98,0003.41,0002.73
2024-02-13 20:48:00,SystemResetWarning,0824.7,5.00,000.00,022.7,022.3,000.0,030.8,024.5,10.6,0000.0,0007.05,0003.46,0002.88
2024-02-13 20:49:00,SystemResetWarning,0824.7,4.99,000.00,022.7,022.3,000.0,030.8,024.5,10.8,0000.0,0006.92,0003.50,0003.00
2024-02-13 20:50:00,SystemResetWarning,0824.8,5.00,000.00,022.7,022.3,000.0,030.9,024.6,10.4,0000.0,0007.28,0003.49,0003.00
2024-02-13 20:51:00,SystemResetWarning,0824.8,5.00,000.00,022.7,022.4,000.0,030.9,024.6,10.4,0000.0,0007.55,0003.45,0002.96
2024-02-13 20:52:00,SystemResetWarning,0824.7,5.00,000.00,022.8,022.4,000.0,030.9,024.6,10.8,0000.0,0007.66,0003.46,0002.96
2024-02-13 20:53:00,SystemResetWarning,0824.7,5.00,000.00,022.8,022.4,000.0,030.9,024.6,11.1,0000.0,0007.64,0003.43,0002.93
2024-02-13 20:54:00,SystemResetWarning,0824.7,5.01,000.00,022.8,022.4,000.0,030.9,024.7,10.7,0000.0,0008.10,0003.41,0002.90
2024-02-13 20:55:00,SystemResetWarning,0824.7,5.00,000.00,022.8,022.4,000.0,031.0,024.7,10.8,0000.0,0008.95,0003.39,0002.88
2024-02-13 20:56:00,SystemResetWarning,0824.7,5.00,000.00,022.8,022.4,000.0,031.0,024.7,10.7,0000.0,0009.41,0003.38,0002.83
2024-02-13 20:57:00,SystemResetWarning,0824.7,5.00,000.00,022.9,022.5,000.0,031.0,024.7,10.4,0000.0,0009.30,0003.33,0002.79
2024-02-13 20:58:00,SystemResetWarning,0824.7,5.00,000.00,022.9,022.5,000.0,031.0,024.8,10.1,0000.0,0009.23,0003.30,0002.76
2024-02-13 20:59:00,SystemResetWarning,0824.7,5.00,000.00,022.9,022.5,000.0,031.0,024.8,10.0,0000.0,0009.09,0003.23,0002.66
